Tracking 29892 objects as of 21-Nov-2024
HD Live streaming from Space Station
objects crossing your sky now

STARLINK-30930

Track STARLINK-30930 now!
10-day predictions
STARLINK-30930 is classified as:


NORAD ID: 58385
Int'l Code: 2023-178M
Perigee: 468.8 km
Apogee: 472.0 km
Inclination: 53.2 °
Period: 93.9 minutes
Semi major axis: 6841 km
RCS: Unknown
Launch date: November 20, 2023
Source: United States (US)
Launch site: AIR FORCE WESTERN TEST RANGE (AFWTR)
Your satellite tracking list
Your tracking list is empty




NASA's NSSDC Master Catalog

Two Line Element Set (TLE):
1 58385U 23178M   24325.63487043  .00002473  00000-0  84799-4 0  9998
2 58385  53.1584  43.5571 0002373 106.2738 253.8526 15.34213608 57178
Source of the keplerian elements: AFSPC